Location: B�hl
(48.6968°N, 8.1352°E)
Time: 20:31:48
(UTC+00:00)

Cosmos 2219 Rocket - Pass Details

Date: 08 March 2021
Orbit: 826 x 848 km, 71.0° (Epoch: 14 April)

Event Time Altitude Azimuth Distance (km) Brightness Sun altitude
Rises 18:02:23 0° 185° (S) 3,354 5.4 -7.4°
Reaches altitude 10° 18:04:53 10° 179° (S) 2,427 4.6 -7.9°
Maximum altitude 18:10:08 44° 109° (ESE) 1,132 2.5 -8.7°
Drops below altitude 10° 18:15:26 10° 39° (NE) 2,455 4.3 -9.6°
Sets 18:17:59 0° 33° (NNE) 3,396 5.1 -10.0°
